TimeEST,TemperatureF,Dew PointF,Humidity,Sea Level PressureIn,VisibilityMPH,Wind Direction,Wind SpeedMPH,Gust SpeedMPH,PrecipitationIn,Events,Conditions,WindDirDegrees,DateUTC
12:53 AM,55.0,48.9,80,30.19,8.0,NNE,3.5,-,N/A,,Clear,30,2013-03-09 05:53:00
1:53 AM,54.0,48.0,80,30.17,9.0,ENE,4.6,-,N/A,,Clear,70,2013-03-09 06:53:00
2:53 AM,52.0,46.9,83,30.16,9.0,NE,3.5,-,N/A,,Clear,50,2013-03-09 07:53:00
3:53 AM,51.1,46.9,86,30.15,8.0,ENE,4.6,-,N/A,,Clear,60,2013-03-09 08:53:00
4:53 AM,51.1,46.9,86,30.16,9.0,ENE,4.6,-,N/A,,Clear,60,2013-03-09 09:53:00
5:53 AM,50.0,46.9,89,30.18,9.0,NE,4.6,-,N/A,,Clear,50,2013-03-09 10:53:00
6:53 AM,52.0,46.9,83,30.18,9.0,ENE,3.5,-,N/A,,Clear,60,2013-03-09 11:53:00
7:53 AM,55.9,48.0,75,30.20,10.0,ENE,5.8,-,N/A,,Clear,60,2013-03-09 12:53:00
8:53 AM,61.0,48.0,62,30.21,10.0,ENE,9.2,-,N/A,,Clear,60,2013-03-09 13:53:00
9:53 AM,69.1,48.9,49,30.22,10.0,East,9.2,-,N/A,,Clear,90,2013-03-09 14:53:00
10:53 AM,72.0,43.0,35,30.21,10.0,East,10.4,-,N/A,,Clear,100,2013-03-09 15:53:00
11:53 AM,73.9,41.0,30,30.19,10.0,ENE,9.2,-,N/A,,Clear,60,2013-03-09 16:53:00
12:53 PM,75.9,37.9,25,30.18,10.0,Variable,4.6,-,N/A,,Clear,0,2013-03-09 17:53:00
1:53 PM,75.9,39.0,26,30.13,10.0,Variable,6.9,-,N/A,,Clear,0,2013-03-09 18:53:00
2:53 PM,77.0,39.0,25,30.13,10.0,East,8.1,-,N/A,,Clear,80,2013-03-09 19:53:00
3:53 PM,77.0,43.0,30,30.12,10.0,East,6.9,-,N/A,,Clear,90,2013-03-09 20:53:00
4:53 PM,75.9,45.0,33,30.12,10.0,East,11.5,-,N/A,,Clear,80,2013-03-09 21:53:00
5:53 PM,73.0,45.0,37,30.13,10.0,East,8.1,-,N/A,,Clear,100,2013-03-09 22:53:00
6:53 PM,70.0,45.0,41,30.14,10.0,East,3.5,-,N/A,,Clear,90,2013-03-09 23:53:00
7:53 PM,68.0,50.0,52,30.17,10.0,East,10.4,-,N/A,,Clear,90,2013-03-10 00:53:00
8:53 PM,66.0,50.0,56,30.19,10.0,East,8.1,-,N/A,,Clear,80,2013-03-10 01:53:00
9:53 PM,64.0,51.1,63,30.19,10.0,East,8.1,-,N/A,,Clear,90,2013-03-10 02:53:00
10:53 PM,63.0,52.0,67,30.18,10.0,East,9.2,-,N/A,,Clear,90,2013-03-10 03:53:00
11:53 PM,62.1,52.0,70,30.16,10.0,East,10.4,-,N/A,,Clear,80,2013-03-10 04:53:00